When you browse on this site, cookies collect data to enhance your experience and personalize the content and advertising you see.
Visit our Privacy Policy to learn more. By continuing to use the site, you agree to this use of cookies and data.
  • en France
  • Liste des pays
  • À 7 jours
  • Température de l'eau
  • Carte satellitaire
  • Carte météo
  • Widgets météo
  • user-avatar
    Se connecter

    Météo par heure à Tuzhai

    Ce jour, 19 Juillet, Vendredi

    Heure Température Précipitation Vent Pression Humidité
    00:00 +28°C° 0 mm 2 m/s 747 mmHg 88%
    01:00 +28°C° 0 mm 1 m/s 747 mmHg 88%
    02:00 +28°C° 0 mm 1 m/s 746 mmHg 91%
    03:00 +28°C° 0 mm 1 m/s 746 mmHg 91%
    04:00 +28°C° 0 mm 2 m/s 746 mmHg 91%
    05:00 +28°C° 0 mm 2 m/s 747 mmHg 91%
    06:00 +29°C° 0 mm 3 m/s 747 mmHg 88%
    07:00 +30°C° 0 mm 3 m/s 747 mmHg 84%
    08:00 +31°C° 0 mm 3 m/s 748 mmHg 81%
    09:00 +33°C° 0 mm 3 m/s 748 mmHg 76%
    10:00 +35°C° 0 mm 3 m/s 748 mmHg 71%
    11:00 +36°C° 0 mm 3 m/s 748 mmHg 66%
    12:00 +37°C° 0.3 mm 4 m/s 748 mmHg 64%
    13:00 +37°C° 0.3 mm 4 m/s 748 mmHg 61%
    14:00 +38°C° 0.3 mm 4 m/s 747 mmHg 59%
    15:00 +37°C° 0.7 mm 5 m/s 747 mmHg 66%
    16:00 +35°C° 0.7 mm 5 m/s 747 mmHg 73%
    17:00 +34°C° 0.7 mm 5 m/s 747 mmHg 80%
    18:00 +33°C° 0.6 mm 5 m/s 748 mmHg 83%
    19:00 +32°C° 0.6 mm 4 m/s 748 mmHg 86%
    20:00 +30°C° 0.6 mm 4 m/s 749 mmHg 88%
    21:00 +30°C° 0.1 mm 3 m/s 749 mmHg 89%
    22:00 +29°C° 0.1 mm 3 m/s 749 mmHg 90%
    23:00 +29°C° 0.1 mm 3 m/s 750 mmHg 91%

    Demain, 20 Juillet, Samedi

    Heure Température Précipitation Vent Pression Humidité
    00:00 +29°C° 0 mm 3 m/s 750 mmHg 91%
    01:00 +29°C° 0 mm 4 m/s 750 mmHg 92%
    02:00 +29°C° 0 mm 4 m/s 749 mmHg 93%
    03:00 +28°C° 0.1 mm 5 m/s 750 mmHg 93%
    04:00 +28°C° 0.1 mm 5 m/s 750 mmHg 94%
    05:00 +28°C° 0.1 mm 5 m/s 750 mmHg 94%
    06:00 +29°C° 0.2 mm 4 m/s 750 mmHg 92%
    07:00 +30°C° 0.2 mm 4 m/s 751 mmHg 90%
    08:00 +32°C° 0.2 mm 4 m/s 751 mmHg 87%
    09:00 +33°C° 1.5 mm 5 m/s 751 mmHg 84%
    10:00 +34°C° 1.5 mm 6 m/s 751 mmHg 80%
    11:00 +35°C° 1.5 mm 6 m/s 751 mmHg 77%
    12:00 +35°C° 1.5 mm 7 m/s 751 mmHg 77%
    13:00 +35°C° 1.5 mm 8 m/s 751 mmHg 77%
    14:00 +34°C° 1.5 mm 8 m/s 750 mmHg 77%
    15:00 +34°C° 0.4 mm 8 m/s 750 mmHg 78%
    16:00 +34°C° 0.4 mm 8 m/s 750 mmHg 79%
    17:00 +33°C° 0.4 mm 8 m/s 750 mmHg 80%
    18:00 +32°C° 0.1 mm 7 m/s 750 mmHg 83%
    19:00 +30°C° 0.1 mm 6 m/s 751 mmHg 85%
    20:00 +30°C° 0.1 mm 6 m/s 751 mmHg 87%
    21:00 +29°C° 0 mm 6 m/s 752 mmHg 89%
    22:00 +29°C° 0 mm 5 m/s 752 mmHg 91%
    23:00 +29°C° 0 mm 5 m/s 752 mmHg 92%

    Après-demain, 21 Juillet, Dimanche

    Heure Température Précipitation Vent Pression Humidité
    00:00 +29°C° 0 mm 5 m/s 752 mmHg 92%
    01:00 +29°C° 0 mm 5 m/s 752 mmHg 92%
    02:00 +29°C° 0 mm 5 m/s 751 mmHg 92%
    03:00 +29°C° 0.3 mm 5 m/s 751 mmHg 93%
    04:00 +29°C° 0.3 mm 5 m/s 751 mmHg 93%
    05:00 +28°C° 0.3 mm 4 m/s 751 mmHg 94%
    06:00 +29°C° 0.6 mm 5 m/s 752 mmHg 91%
    07:00 +30°C° 0.6 mm 5 m/s 752 mmHg 88%
    08:00 +32°C° 0.6 mm 6 m/s 753 mmHg 85%
    09:00 +32°C° 0.3 mm 6 m/s 753 mmHg 82%
    10:00 +33°C° 0.3 mm 6 m/s 752 mmHg 80%
    11:00 +34°C° 0.3 mm 7 m/s 752 mmHg 77%
    12:00 +34°C° 0 mm 7 m/s 752 mmHg 76%
    13:00 +34°C° 0 mm 6 m/s 751 mmHg 75%
    14:00 +34°C° 0 mm 6 m/s 751 mmHg 74%
    15:00 +34°C° 0 mm 6 m/s 751 mmHg 75%
    16:00 +34°C° 0 mm 6 m/s 750 mmHg 77%
    17:00 +34°C° 0 mm 6 m/s 750 mmHg 78%
    18:00 +33°C° 0.1 mm 6 m/s 750 mmHg 81%
    19:00 +32°C° 0.1 mm 6 m/s 751 mmHg 83%
    20:00 +29°C° 0.1 mm 5 m/s 751 mmHg 86%
    21:00 +29°C° 0 mm 5 m/s 752 mmHg 87%
    22:00 +29°C° 0 mm 5 m/s 752 mmHg 88%
    23:00 +29°C° 0 mm 5 m/s 752 mmHg 89%

    22 Juillet, Lundi

    Heure Température Précipitation Vent Pression Humidité
    00:00 +29°C° 0 mm 5 m/s 752 mmHg 90%
    01:00 +29°C° 0 mm 5 m/s 752 mmHg 90%
    02:00 +29°C° 0 mm 5 m/s 752 mmHg 91%
    03:00 +29°C° 0 mm 5 m/s 752 mmHg 91%
    04:00 +29°C° 0 mm 5 m/s 751 mmHg 92%
    05:00 +28°C° 0 mm 5 m/s 751 mmHg 92%
    06:00 +29°C° 0 mm 5 m/s 752 mmHg 89%
    07:00 +30°C° 0 mm 5 m/s 752 mmHg 85%
    08:00 +32°C° 0 mm 5 m/s 753 mmHg 82%
    09:00 +32°C° 0 mm 5 m/s 752 mmHg 79%
    10:00 +33°C° 0 mm 5 m/s 752 mmHg 76%
    11:00 +34°C° 0 mm 5 m/s 752 mmHg 73%
    12:00 +34°C° 0.4 mm 5 m/s 752 mmHg 72%
    13:00 +35°C° 0.4 mm 5 m/s 751 mmHg 72%
    14:00 +35°C° 0.4 mm 6 m/s 751 mmHg 72%
    15:00 +34°C° 0.6 mm 6 m/s 751 mmHg 74%
    16:00 +34°C° 0.6 mm 6 m/s 751 mmHg 77%
    17:00 +33°C° 0.6 mm 6 m/s 750 mmHg 80%
    18:00 +32°C° 0.1 mm 6 m/s 751 mmHg 82%
    19:00 +30°C° 0.1 mm 5 m/s 751 mmHg 85%
    20:00 +29°C° 0.1 mm 5 m/s 752 mmHg 88%
    21:00 +29°C° 0 mm 5 m/s 752 mmHg 88%
    22:00 +29°C° 0 mm 4 m/s 752 mmHg 88%
    23:00 +29°C° 0 mm 4 m/s 753 mmHg 89%

    23 Juillet, Mardi

    Heure Température Précipitation Vent Pression Humidité
    00:00 +28°C° 0 mm 4 m/s 752 mmHg 89%
    01:00 +28°C° 0 mm 5 m/s 752 mmHg 90%
    02:00 +28°C° 0 mm 5 m/s 752 mmHg 90%
    03:00 +28°C° 0 mm 4 m/s 752 mmHg 91%
    04:00 +28°C° 0 mm 4 m/s 752 mmHg 91%
    05:00 +28°C° 0 mm 4 m/s 752 mmHg 92%
    06:00 +28°C° 0 mm 4 m/s 752 mmHg 89%
    07:00 +29°C° 0 mm 4 m/s 752 mmHg 87%
    08:00 +30°C° 0 mm 4 m/s 753 mmHg 84%
    09:00 +32°C° 0 mm 4 m/s 753 mmHg 80%
    10:00 +33°C° 0 mm 5 m/s 752 mmHg 75%
    11:00 +34°C° 0 mm 5 m/s 752 mmHg 71%
    12:00 +34°C° 0 mm 6 m/s 752 mmHg 70%
    13:00 +34°C° 0 mm 6 m/s 751 mmHg 70%
    14:00 +34°C° 0 mm 7 m/s 751 mmHg 69%
    15:00 +34°C° 0 mm 6 m/s 751 mmHg 71%
    16:00 +33°C° 0 mm 6 m/s 751 mmHg 74%
    17:00 +33°C° 0 mm 6 m/s 751 mmHg 76%
    18:00 +32°C° 0 mm 5 m/s 751 mmHg 78%
    19:00 +30°C° 0 mm 5 m/s 752 mmHg 80%
    20:00 +29°C° 0 mm 4 m/s 752 mmHg 83%
    21:00 +28°C° 0 mm 4 m/s 752 mmHg 84%
    22:00 +28°C° 0 mm 5 m/s 753 mmHg 85%
    23:00 +28°C° 0 mm 5 m/s 753 mmHg 86%

    24 Juillet, Mercredi

    Heure Température Précipitation Vent Pression Humidité
    00:00 +28°C° 0 mm 5 m/s 753 mmHg 87%
    01:00 +28°C° 0 mm 5 m/s 752 mmHg 88%
    02:00 +28°C° 0 mm 5 m/s 752 mmHg 89%
    03:00 +28°C° 0 mm 5 m/s 752 mmHg 90%
    04:00 +28°C° 0 mm 5 m/s 752 mmHg 91%
    05:00 +28°C° 0 mm 5 m/s 752 mmHg 92%
    06:00 +28°C° 0 mm 5 m/s 752 mmHg 89%
    07:00 +29°C° 0 mm 5 m/s 752 mmHg 86%
    08:00 +30°C° 0 mm 5 m/s 753 mmHg 82%
    09:00 +32°C° 0 mm 5 m/s 753 mmHg 77%
    10:00 +33°C° 0 mm 6 m/s 753 mmHg 71%
    11:00 +35°C° 0 mm 6 m/s 753 mmHg 66%
    12:00 +35°C° 0 mm 6 m/s 753 mmHg 65%
    13:00 +35°C° 0 mm 7 m/s 752 mmHg 65%
    14:00 +35°C° 0 mm 7 m/s 752 mmHg 65%
    15:00 +35°C° 0.2 mm 7 m/s 752 mmHg 68%
    16:00 +34°C° 0.2 mm 7 m/s 752 mmHg 72%
    17:00 +33°C° 0.2 mm 7 m/s 752 mmHg 76%
    18:00 +32°C° 0 mm 6 m/s 752 mmHg 79%
    19:00 +30°C° 0 mm 6 m/s 752 mmHg 82%
    20:00 +29°C° 0 mm 6 m/s 753 mmHg 85%
    21:00 +29°C° 0 mm 5 m/s 753 mmHg 86%
    22:00 +29°C° 0 mm 5 m/s 753 mmHg 87%
    23:00 +29°C° 0 mm 5 m/s 754 mmHg 88%
    Voir plus